Reading Regional Carl A Spaatz Field
KRDG : now visible

Airfield :











YOU CAN JOIN US ON...

 
LOGIN :

Register | Disclaimer

   EN    FR    IT 

 









Legend :    VFR   Marginal VFR   IFR   Intensive IFR   Very Intensive IFR
Visi :
Ceiling :
>= 8 km
>= 3000ft
5 to 8 km
1000 to 3000 ft
1500m to 5 km
500 to 1000 ft
800 to 1500m
200 to 500 ft
< 800m
< 200 ft
Symbols :   Thunderstorms  Fog  Heavy snow  Heavy precipitations  Wind > 20 kt






- Airport Elevation : 344 ft
- IATA code : RDG


KRDG - Reading Regional Carl A Spaatz Field

CURRENT METAR :
  • 222254Z 32012KT 10SM CLR 18/12 A2985 RMK AO2 SLP112 T01830122

EXPIRED METARs :
  • 222154Z 31013KT 10SM SCT024 19/12 A2982 RMK AO2 SLP101 T01890122
  • 222054Z 30011KT 10SM FEW024 19/13 A2978 RMK AO2 SLP088 60000 T01940133 53005

TAF KRDG
Valid from the 22 at 20:00 until the 23 at 18:00 UTC


221931Z 2220/2318 32010KT 6SM -SHRA SCT020 OVC090
FM222100 32010KT P6SM SCT050 BKN200
FM230300 VRB02KT 6SM BR SKC
FM231200 33005KT P6SM FEW060
KZNY FIR / North America



MET'MAP, your aeronautical weather chart ! - Copyright ORBIFLY December 2007 - Disclaimer

ORBIFLY MET'MAP TEAM :

Programming & Development : Alexandra Zaïnal
Concept & original design : Baudouin d'Aumeries
Assistance for programming : Marc-Olivier Méhu
Technical & hardware support : Manuel Goepfert

Contact : metmap@orbifly.com




SOURCES & CREDITS :

   NOAA       Earth
Advisory